STARLINK-2410, 47825

Orbit data source: Space-Track

STARLINK-2410, 47825 is a payload satellite owned by SpaceX/Seattle (US) in LEO that was launched on Thu, 11 Mar 2021 UTC via an FALCON 9 launch vehicle from the Air Force Eastern Test Range (AFETR). Payload-class satellites include a variety of spacecraft equipped with specific instruments for various scientific and technological missions. These include communications satellites like Starlink; space stations such as the ISS; scientific satellites like the Hubble; Earth observation satellites from companies like Planet Labs, Umbra, and HawkEye 360; GPS; miniature CubeSats for education and research; and military/defense satellites.

Loading next visibility...
Identifier
47825, 2021-018AQ
Orbit
LEO
Country
Flag of USUS
Related business
Manufacturer
SpaceX/Seattle
Mission
Operational Commercial Communications
Bus & Motor
STARLINK, Unknown motor
Mass
260 kg wet, ~248 kg dry
Launch date (UTC)
2021-03-11 (5 years ago)
Launch vehicle
FALCON 9
Launch site
Air Force Eastern Test Range (AFETR)
Object type
Payload
Rocket body
Debris
Shape & HBR
Box + 1 Pan, 10.1 m
Radar Cross Section
13.562 m², Large (>1 m²)

Expand to show TLE details & history
Last TLE update: 2 days ago

TLE from 2 days ago
0 STARLINK-2410
1 47825U 21018AQ  26171.25249562  .00000253  00000-0  19940-4 0  9997
2 47825  53.1592 125.6944 0001458  91.0852 269.0316 15.31696403292443
Epoch: 2026-06-20T06:03Z
TLE epoch observation values (Epoch: 2026-06-20T06:03:35.621Z)
Latitude
-0.00006°
Longitude
126.32615°
Altitude
471.668 km
Speed
7.631 km/s
True Right ascension
08h 22m 46s
True Declination
0° 00' 00"
Sunlit
Object was in daylight at epoch
Visualization orbit readout
Latitude
Unknown
Longitude
Unknown
Altitude
Unknown
Speed
Unknown
Apparent Right ascension
Unknown
Apparent Declination
Unknown
Sunlit
N/A
Visualization observer readout
Local Sidereal Time
21:44:06
Azimuth
Unknown
Elevation
Unknown
Doppler factor
Unknown
Orbital elements
Apogee altitude
472.006 km
Perigee altitude
470.009 km
Semi-major axis
6,849.144 km
Eccentricity
0.00015
Inclination
53.1592°
RAAN
125.6944°
Arg. of periapsis
91.0852°
True anomaly
269.01489°
Mean anomaly
269.0316°
Eccentric anomaly
269.02325°
Mean motion
3.82903 °/min
Orbital period
94.02 mins
BSTAR
0.00001994
Loading maneuver chart data...
Computing Atmospheric mass density...

Documentation

Showing up to 5 results
|